Station HIVT2 - 8775223 - Harbor Island Visibility, TX Image indicating link to RSS feed of recent meteorological observations for station HIVT2


Conditions at HIVT2 as of
(12:48 am CDT)
0548 GMT on 06/24/2024:
     

Click on the graph icon in the table below to see a time series plot of the last five days of that observation.

5-day plot - Atmospheric Pressure Atmospheric Pressure (PRES):29.88 in
5-day plot - Air Temperature Air Temperature (ATMP): 84.2 °F
5-day plot - Dew Point Dew Point (DEWP): 81.5 °F
5-day plot - Visibility Visibility (VIS): 5.9 nmi
5-day plot - Heat Index Heat Index (HEAT): 99.5 °F
NOS Water Level Observation Network Water Level
Previous observations
TIME
(CDT)
5-day plot - Wind Direction
WDIR
 
5-day plot - Wind Speed
WSPD
kts
5-day plot - Wind Gust
GST
kts
5-day plot - Wave Height
WVHT
ft
5-day plot - Dominant Wave Period
DPD
sec
5-day plot - Average Wave Period
APD
sec
5-day plot - Mean Wave Direction
MWD
 
5-day plot - Atmospheric Pressure
PRES
in
5-day plot - Pressure Tendency
PTDY
in
5-day plot - Air Temperature
ATMP
°F
5-day plot - Water Temperature
WTMP
°F
5-day plot - Dew Point
DEWP
°F
5-day plot - Salinity
SAL
psu
5-day plot - Visibility
VIS
nmi
5-day plot - Tide (above MLLW)
TIDE
ft
2024-06-24 12:42 am-------29.88- 83.8- 81.1- 5.9-
2024-06-24 12:36 am-------29.88- 84.2- 81.5- 5.9-
2024-06-24 12:30 am-------29.88- 83.8- 81.1- 5.9-
2024-06-24 12:24 am-------29.88- 84.0- 81.5- 5.9-
2024-06-24 12:18 am-------29.88- 83.8- 81.5- 5.9-
2024-06-24 12:12 am-------29.88- 84.0- 81.7- 5.9-
2024-06-24 12:06 am-------29.89- 84.4- 82.0- 5.9-
2024-06-24 12:00 am-------29.89+0.03 84.2- 81.9- 5.9-
2024-06-23 11:54 pm-------29.89- 84.0- 81.5- 5.9-
2024-06-23 11:48 pm-------29.89- 84.2- 81.7- 5.9-
2024-06-23 11:42 pm-------29.88- 84.0- 81.5- 5.9-
2024-06-23 11:36 pm-------29.88- 84.2- 81.9- 5.9-
2024-06-23 11:30 pm-------29.88- 84.2- 81.7- 5.9-
2024-06-23 11:24 pm-------29.88- 84.2- 81.7- 5.9-
2024-06-23 11:18 pm-------29.89- 84.2- 81.7- 5.9-
2024-06-23 11:12 pm-------29.89- 84.2- 81.7- 5.9-
2024-06-23 11:06 pm-------29.88- 84.2- 81.7- 5.9-
2024-06-23 10:48 pm-------29.88----- 5.9-
2024-06-23 10:42 pm-------29.88----- 5.9-
2024-06-23 10:36 pm-------29.88----- 5.9-
2024-06-23 10:30 pm-------29.88- 84.0- 81.3- 5.9-
2024-06-23 10:24 pm-------29.88- 83.8- 81.1- 5.9-
2024-06-23 10:18 pm-------29.88- 84.0- 81.3- 5.9-
2024-06-23 10:12 pm-------29.87- 84.0- 81.3- 5.9-
2024-06-23 10:06 pm-------29.87- 84.0- 81.3- 5.9-
2024-06-23 10:00 pm-------29.87+0.02 83.8- 81.1- 5.9-
2024-06-23 09:54 pm-------29.87- 84.0- 81.3- 5.9-
2024-06-23 09:48 pm-------29.87- 84.0- 81.3- 5.9-
2024-06-23 09:42 pm-------29.87- 84.4- 81.7- 5.9-
2024-06-23 09:36 pm-------29.86- 84.0- 81.1- 5.9-
2024-06-23 09:30 pm-------29.86- 84.4- 81.5- 5.9-
2024-06-23 09:24 pm-------29.86- 84.2- 81.1- 5.9-
2024-06-23 09:18 pm-------29.86- 84.0- 80.8- 5.9-
2024-06-23 09:12 pm-------29.86- 83.8- 80.6- 5.9-
2024-06-23 09:06 pm-------29.86- 84.0- 81.0- 5.9-
2024-06-23 09:00 pm-------29.86+0.01 84.0- 81.0- 5.9-
2024-06-23 08:54 pm-------29.85- 84.0- 81.0- 5.9-
2024-06-23 08:48 pm-------29.85----- 5.9-
2024-06-23 08:42 pm-------29.85----- 5.9-
2024-06-23 08:36 pm-------29.85----- 5.9-
2024-06-23 08:30 pm-------29.85----- 5.9-
2024-06-23 08:24 pm-------29.85----- 5.9-
2024-06-23 08:18 pm-------29.85- 84.9- 81.5- 5.9-
2024-06-23 08:12 pm-------29.85- 84.7- 81.1- 5.9-
2024-06-23 08:06 pm-------29.85- 84.9- 81.1- 5.9-
2024-06-23 08:00 pm-------29.85+0.00 85.1- 81.3- 5.9-
2024-06-23 07:54 pm-------29.85- 85.3- 81.3- 5.9-
2024-06-23 07:48 pm-------29.85- 85.6- 81.5- 5.9-
2024-06-23 07:42 pm-------29.85- 85.8- 81.3- 5.9-
2024-06-23 07:36 pm-------29.86- 85.6- 81.0- 5.9-
2024-06-23 07:30 pm-------29.86- 86.0- 81.3- 5.9-
2024-06-23 07:24 pm-------29.85- 85.6- 80.6- 5.9-
2024-06-23 07:18 pm-------29.85- 86.2- 81.0- 5.9-
2024-06-23 07:12 pm-------29.85- 86.2- 80.6- 5.9-
2024-06-23 07:06 pm-------29.85- 86.2- 80.4- 5.9-
2024-06-23 07:00 pm-------29.85-0.02 86.5- 80.4- 5.9-
2024-06-23 06:54 pm-------29.85- 86.7- 80.4- 5.9-
2024-06-23 06:48 pm-------29.85- 86.5- 80.2- 5.9-
2024-06-23 06:42 pm-------29.85- 86.7- 80.4- 5.9-
2024-06-23 06:36 pm-------29.85- 86.5- 80.4- 5.9-
2024-06-23 06:30 pm-------29.85- 86.5- 80.4- 5.9-
2024-06-23 06:24 pm-------29.85- 86.9- 81.0- 5.9-
2024-06-23 06:18 pm-------29.85----- 5.9-
2024-06-23 06:12 pm-------29.85----- 5.9-
2024-06-23 06:06 pm-------29.85----- 5.9-
2024-06-23 06:00 pm-------29.85-0.04---- 5.9-
2024-06-23 05:54 pm-------29.85----- 5.9-
2024-06-23 05:48 pm-------29.85- 87.1- 80.2- 5.9-
2024-06-23 05:42 pm-------29.85- 86.9- 80.2- 5.9-
2024-06-23 05:36 pm-------29.85- 87.6- 81.3- 5.9-
2024-06-23 05:30 pm-------29.85- 87.4- 81.0- 5.9-
2024-06-23 05:24 pm-------29.85- 87.4- 80.8- 5.9-
2024-06-23 05:18 pm-------29.85----- 5.9-
2024-06-23 05:12 pm-------29.86----- 5.9-
2024-06-23 05:06 pm-------29.86----- 5.9-
2024-06-23 05:00 pm-------29.86-0.04 88.7- 81.9- 5.9-
2024-06-23 04:54 pm-------29.86- 88.3- 81.9- 5.9-
2024-06-23 04:48 pm-------29.87- 88.0- 81.9- 5.9-
2024-06-23 04:42 pm-------29.87- 87.3- 81.5- 5.9-
2024-06-23 04:36 pm-------29.87- 87.8- 82.0- 5.9-
2024-06-23 04:30 pm-------29.87- 87.8- 82.0- 5.9-
2024-06-23 04:24 pm-------29.87- 87.8- 82.2- 5.9-
2024-06-23 04:18 pm-------29.87- 88.0- 82.0- 5.9-
2024-06-23 04:12 pm-------29.87- 88.0- 82.4- 5.9-
2024-06-23 04:06 pm-------29.87- 88.2- 82.4- 5.9-
2024-06-23 04:00 pm-------29.88-0.04 88.2- 82.2- 5.9-
2024-06-23 03:54 pm-------29.88- 87.6- 81.9- 5.9-
2024-06-23 03:48 pm-------29.88- 87.4- 81.9- 5.9-
2024-06-23 03:42 pm-------29.88- 87.4- 81.9- 5.9-
2024-06-23 03:36 pm-------29.88- 87.6- 82.0- 5.9-
2024-06-23 03:30 pm-------29.88- 87.3- 81.3- 5.9-
2024-06-23 03:24 pm-------29.88- 88.7- 82.0- 5.9-
2024-06-23 03:18 pm-------29.88- 88.3- 81.7- 5.9-
2024-06-23 03:12 pm-------29.88- 87.8- 81.3- 5.9-
2024-06-23 03:06 pm-------29.89- 87.8- 81.3- 5.9-
2024-06-23 03:00 pm-------29.89-0.04 88.5- 81.3- 5.9-
2024-06-23 02:54 pm-------29.89- 88.9- 82.0- 5.9-
2024-06-23 02:48 pm-------29.89- 88.7- 82.2- 5.9-
2024-06-23 02:42 pm-------29.89- 89.2- 82.6- 5.9-
2024-06-23 02:36 pm-------29.89- 88.9- 82.4- 5.9-
2024-06-23 02:30 pm-------29.90- 88.0- 81.7- 5.9-
2024-06-23 02:24 pm-------29.90- 88.2- 81.7- 5.9-
2024-06-23 02:18 pm-------29.90- 87.8- 80.8- 5.9-
2024-06-23 02:12 pm-------29.90- 88.5- 81.5- 5.9-
2024-06-23 02:06 pm-------29.90- 89.4- 82.4- 5.9-
2024-06-23 02:00 pm-------29.91-0.02 88.3- 81.3- 5.9-
2024-06-23 01:54 pm-------29.91- 88.3- 81.3- 5.9-
2024-06-23 01:48 pm-------29.91- 87.4- 81.1- 5.9-
2024-06-23 01:42 pm-------29.91- 86.5- 81.9- 5.9-
2024-06-23 01:36 pm-------29.91- 85.6- 81.5- 5.9-
2024-06-23 01:30 pm-------29.91- 86.2- 81.3- 5.9-
2024-06-23 01:24 pm-------29.91- 88.0- 82.2- 5.9-
2024-06-23 01:18 pm-------29.92- 87.3- 81.5- 5.9-
2024-06-23 01:12 pm-------29.91- 87.3- 81.1- 5.9-
2024-06-23 01:06 pm-------29.92- 88.5- 81.9- 5.9-
2024-06-23 01:00 pm-------29.92+0.00 87.3- 80.8- 5.9-
2024-06-23 12:54 pm-------29.92- 86.7- 81.0- 5.9-
2024-06-23 12:48 pm-------29.92- 87.1- 81.7- 5.9-
2024-06-23 12:42 pm-------29.92- 86.2- 81.0- 5.9-
2024-06-23 12:36 pm-------29.93- 86.2- 80.8- 5.9-
2024-06-23 12:30 pm-------29.93- 86.9- 81.3- 5.9-
2024-06-23 12:24 pm-------29.93- 86.5- 80.6- 5.9-
2024-06-23 12:18 pm-------29.93- 85.3- 80.6- 5.9-
2024-06-23 12:12 pm-------29.93- 84.7- 81.3- 5.9-
2024-06-23 12:06 pm-------29.93- 83.8- 81.1- 5.9-
2024-06-23 12:00 pm-------29.93- 83.3- 81.3- 5.9-
2024-06-23 11:54 am-------29.93- 82.6- 81.0- 5.9-
2024-06-23 11:48 am-------29.93- 82.8- 81.3- 5.9-
2024-06-23 11:42 am-------29.93- 82.4- 81.0- 5.9-
2024-06-23 11:36 am-------29.93- 81.7- 80.1- 5.9-
2024-06-23 11:30 am-------29.93- 81.9- 80.1- 5.9-
2024-06-23 11:24 am-------29.93- 81.7- 79.7- 4.9-
2024-06-23 11:18 am-------29.93- 82.2- 79.7- 1.0-
2024-06-23 11:12 am-------29.93- 83.5- 80.2- 1.9-
2024-06-23 11:06 am-------29.93- 83.8- 80.6- 5.9-
2024-06-23 11:00 am-------29.93- 83.8- 80.6- 5.9-
2024-06-23 10:54 am-------29.93- 83.8- 80.4- 5.9-
2024-06-23 10:48 am-------29.93- 84.0- 80.2- 5.9-
2024-06-23 10:42 am-------29.92- 84.2- 80.1- 5.9-
2024-06-23 10:36 am-------29.92- 84.4- 79.7- 5.9-
2024-06-23 10:30 am-------29.92- 84.6- 79.7- 5.9-
2024-06-23 10:24 am-------29.92- 84.7- 79.3- 5.9-
2024-06-23 10:18 am-------29.92----- 5.9-
2024-06-23 10:12 am-------29.92----- 5.9-
2024-06-23 10:06 am-------29.92----- 5.9-
2024-06-23 10:00 am-------29.92+0.04---- 5.9-
2024-06-23 09:54 am-------29.92----- 5.9-
2024-06-23 09:48 am-------29.92- 85.1- 80.4- 5.9-
2024-06-23 09:42 am-------29.91- 84.9- 80.2- 5.9-
2024-06-23 09:36 am-------29.92- 84.6- 80.2- 5.9-
2024-06-23 09:30 am-------29.92- 84.7- 80.8- 5.9-
2024-06-23 09:24 am-------29.92- 85.1- 81.3- 5.9-
2024-06-23 09:18 am-------29.91----- 5.9-
2024-06-23 09:12 am-------29.91----- 5.9-
2024-06-23 09:06 am-------29.91----- 5.9-
2024-06-23 09:00 am--------- 84.4- 81.3- 5.9-
2024-06-23 08:54 am--------- 84.6- 81.1- 5.9-
2024-06-23 08:48 am-------29.91- 84.7- 81.0- 5.9-
2024-06-23 08:42 am-------29.91- 85.1- 81.1- 5.9-
2024-06-23 08:36 am-------29.91- 84.7- 81.1- 5.9-
2024-06-23 08:30 am-------29.91----- 5.9-
2024-06-23 08:24 am-------29.91----- 5.9-
2024-06-23 08:18 am-------29.91- 84.0- 80.8- 5.9-
2024-06-23 08:12 am-------29.91- 84.0- 80.6- 5.9-
2024-06-23 08:06 am-------29.90- 84.2- 81.0- 5.9-
2024-06-23 07:48 am-------29.90- 83.7- 80.6- 5.9-
2024-06-23 07:42 am-------29.89- 84.2- 81.3- 5.9-
2024-06-23 07:36 am-------29.89- 84.0- 81.0- 5.9-
2024-06-23 07:30 am-------29.89- 83.7- 80.8- 5.9-
2024-06-23 07:24 am-------29.89- 83.3- 80.4- 5.9-
2024-06-23 07:18 am-------29.89- 83.1- 80.4- 5.9-
2024-06-23 07:12 am-------29.89- 83.1- 80.6- 5.9-
2024-06-23 07:06 am-------29.88- 83.1- 80.6- 5.9-
2024-06-23 07:00 am-------29.88+0.00---- 5.9-
2024-06-23 06:54 am-------29.88----- 5.9-
2024-06-23 06:48 am-------29.88- 82.9- 80.4- 5.9-
2024-06-23 06:42 am-------29.88- 82.9- 80.2- 5.9-
2024-06-23 06:36 am-------29.88- 82.9- 80.2- 5.9-
2024-06-23 06:30 am-------29.88- 82.8- 80.2- 5.9-
2024-06-23 06:24 am-------29.88- 82.4- 80.1- 5.9-
2024-06-23 06:18 am-------29.88----- 5.9-
2024-06-23 06:12 am-------29.88----- 5.9-
2024-06-23 06:06 am-------29.88----- 5.9-
2024-06-23 06:00 am--------- 82.8- 80.8- 5.9-
2024-06-23 05:54 am--------- 82.9- 80.8- 5.9-
2024-06-23 05:48 am-------29.88- 82.8- 80.6- 5.9-
2024-06-23 05:42 am-------29.88- 82.8- 80.4- 4.9-
2024-06-23 05:36 am-------29.88- 82.6- 80.4- 5.9-
2024-06-23 05:30 am-------29.88- 82.8- 80.6- 5.9-
2024-06-23 05:24 am-------29.88- 82.6- 80.6- 5.9-
2024-06-23 05:18 am-------29.88- 82.9- 81.0- 5.9-
2024-06-23 05:12 am-------29.88- 82.9- 80.6- 5.9-
2024-06-23 05:06 am-------29.88- 82.9- 80.4- 5.9-
2024-06-23 05:00 am-------29.88-0.03---- 5.9-
2024-06-23 04:54 am-------29.87----- 5.9-
2024-06-23 04:48 am-------29.87- 82.8- 80.1- 5.9-
2024-06-23 04:42 am-------29.88- 82.6- 80.1- 5.9-
2024-06-23 04:36 am-------29.88- 82.8- 80.4- 5.9-
2024-06-23 04:30 am-------29.88- 82.9- 80.4- 5.9-
2024-06-23 04:24 am-------29.88- 83.1- 80.6- 5.9-
2024-06-23 04:18 am-------29.88- 83.1- 80.4- 5.9-
2024-06-23 04:12 am-------29.88- 82.8- 80.1- 5.9-
2024-06-23 04:06 am-------29.88- 82.9- 80.4- 5.9-
2024-06-23 04:00 am-------29.88- 82.9- 80.4- 5.9-
2024-06-23 03:54 am-------29.88- 82.9- 80.2- 5.9-
2024-06-23 03:48 am-------29.88- 82.8- 80.1- 5.9-
2024-06-23 03:42 am-------29.88- 82.9- 80.2- 5.9-
2024-06-23 03:36 am-------29.88- 82.8- 80.1- 5.9-
2024-06-23 03:30 am-------29.88- 82.9- 80.4- 5.9-
2024-06-23 03:24 am-------29.88- 83.1- 80.4- 5.9-
2024-06-23 03:18 am-------29.88- 82.8- 80.1- 5.9-
2024-06-23 03:12 am-------29.89- 83.1- 80.2- 5.9-
2024-06-23 03:06 am-------29.89- 83.3- 80.2- 5.9-
2024-06-23 03:00 am-------29.89-0.05 82.8- 79.7- 5.9-
2024-06-23 02:54 am-------29.89- 82.6- 79.7- 5.9-
2024-06-23 02:48 am-------29.89- 83.1- 80.4- 5.9-
2024-06-23 02:42 am-------29.89- 82.9- 80.1- 5.9-
2024-06-23 02:36 am-------29.90- 83.1- 80.2- 5.9-
2024-06-23 02:30 am-------29.90- 83.1- 80.2- 5.9-
2024-06-23 02:24 am-------29.90- 83.1- 80.1- 5.9-
2024-06-23 02:18 am-------29.90- 83.1- 79.9- 5.9-
2024-06-23 02:12 am-------29.90- 82.9- 79.7- 5.9-
2024-06-23 02:06 am-------29.90- 82.8- 79.5- 5.9-
2024-06-23 02:00 am-------29.90-0.04 82.8- 79.7- 5.9-
2024-06-23 01:54 am-------29.90- 82.9- 80.1- 5.9-
2024-06-23 01:48 am-------29.91- 83.1- 80.2- 5.9-
2024-06-23 01:42 am-------29.91- 82.9- 80.1- 5.9-
2024-06-23 01:36 am-------29.91- 83.1- 80.2- 5.9-
2024-06-23 01:30 am-------29.91- 82.9- 79.9- 5.9-
2024-06-23 01:24 am-------29.91- 83.1- 80.1- 5.9-
2024-06-23 01:18 am-------29.92- 83.1- 79.9- 5.9-
2024-06-23 01:12 am-------29.92- 83.1- 79.9- 5.9-
2024-06-23 01:06 am-------29.92- 83.3- 79.9- 5.9-
2024-06-23 01:00 am--------- 82.9- 79.5- 5.9-
2024-06-23 12:54 am--------- 83.3- 80.1- 5.9-